Regional Weather Roundup
Issued by NWS Grand Forks, ND

Home | Current Version | Previous Version | Graphics & Text | Print | Product List | Glossary On
Versions: 1 2 3 4 5 6 7 8 9 10 11 12 13 14 15 16 17 18 19 20 21 22 23 24 25 26 27 28 29 30 31 32 33 34 35 36 37 38 39 40 41 42 43 44 45 46 47 48 49 50
000
ASUS43 KFGF 300231
RWRFGF
PRAIRIE TO PINES  WEATHER ROUNDUP
NATIONAL WEATHER SERVICE EASTERN NORTH DAKOTA/GRAND FORKS ND
900 PM CDT TUE JUL 29 2014

 **SATELLITE DATA USED TO AUGMENT SKY COVER AT AUTOMATED STATIONS**
 *****  WEATHER ACROSS EASTERN NORTH DAKOTA  *****

CITY           SKY/WX    TMP DP  RH WIND       PRES   REMARKS
GRAND FORKS    PTCLDY    67  61  81 NW3       30.08S
GRAND FRKS AFB CLEAR     68  59  73 N2        30.10S
GRAND FRKS NWS   N/A     39 N/A N/A MISG        N/A
DEVILS LAKE    CLEAR     70  54  56 CALM      30.11S
FARGO          CLEAR     70  56  61 CALM      30.08S
WAHPETON ARPT  CLEAR     66  52  59 N3        30.09S
$$

 ***** WEATHER ACROSS CENTRAL AND WESTERN NORTH DAKOTA  *****

CITY           SKY/WX    TMP DP  RH WIND       PRES   REMARKS
BISMARCK       CLEAR     73  58  59 NE7       30.13S
MINOT          PTCLDY    70  62  76 CALM      30.13S
JAMESTOWN      CLEAR     68  58  70 N5        30.12R
MINOT AFB      NOT AVBL
GARRISON         N/A     71  63  75 E5        30.14R
WILLISTON      CLEAR     78  55  44 NE9       30.15S
DICKINSON      CLEAR     68  57  68 E7        30.14R
HETTINGER      PTCLDY    69  54  58 E16       30.15R
$$

 *****  OTHER AIRPORT OBSERVATIONS IN OUR AREA  *****

CITY           SKY/WX    TMP DP  RH WIND       PRES   REMARKS
WALHALLA         N/A     64  59  82 W5          N/A
GRAFTON AIRPOR FAIR      68  57  68 NW5       30.09S
VALLEY CITY AR FAIR      63  54  72 CALM      30.12R
CANDO          FAIR      66  55  68 NE3       30.13S
CAVALIER APRT  FAIR      70  55  60 N3        30.10S
GWINNER        CLEAR     68  57  68 N3        30.11S
SHEYENNE NWR     N/A     71  56  60 CALM      29.95S
ROLLA          FAIR      61  59  94 NW5       30.16R
 ***** THE ABOVE OBSERVATIONS ARE NON NWS ARE NOT QUALITY
       CONTROLLED AND MAY MIS-REPORT RAIN FOR SNOW...
$$

  *****  WEATHER ACROSS NORTHERN MINNESOTA  *****

CITY           SKY/WX    TMP DP  RH WIND       PRES   REMARKS
FLAG ISLAND    CLEAR     72  57  60 NW12      30.04S
WARROAD        CLEAR     68  55  64 W8        30.07S
ROSEAU         CLEAR     66  57  72 NW5       30.08R
HALLOCK        CLEAR     70  59  68 N6        30.08S
THF RVR FALLS  CLEAR     66  57  72 NW5       30.09S
BAUDETTE       PTCLDY    68  56  65 NW5       30.06S
WASKISH        CLEAR     68  57  68 W5        30.06S
CROOKSTON      CLEAR     66  61  82 CALM      30.10R
$$
  *****  WEATHER ACROSS CENTRAL AND WEST MINNESOTA  *****

CITY           SKY/WX    TMP DP  RH WIND       PRES   REMARKS
FOSSTON        CLEAR     61  54  77 CALM      30.10S
BEMIDJI        CLEAR     63  55  75 W5        30.08S
PARK RAPIDS    CLEAR     64  56  75 NW6       30.09R
ELBOW LAKE     FAIR      65  58  76 N5        30.09S
WADENA         CLEAR     63  55  77 NW3       30.09R
DETROIT LAKES  CLEAR     66  55  68 NW3       30.12R
MOORHEAD       CLEAR     70  61  73 CALM      30.10R
FERGUS FALLS   CLEAR     64  52  63 N3        30.09R
MORRIS MN      CLEAR     63  57  82 W5        30.08S
STAPLES        CLEAR     64  55  72 CALM      30.09R
$$
  *****  WEATHER ELSEWHERE ACROSS MINNESOTA  *****

CITY           SKY/WX    TMP DP  RH WIND       PRES   REMARKS
DULUTH         MOCLDY    59  55  87 N3        30.05F
INTRNTL FALLS  MOCLDY    63  59  87 CALM      30.04R
ELY              N/A     55  54  94 CALM      30.05R FOG
CLOQUET        MOCLDY    59  54  82 CALM      30.06S
WHEATON        CLEAR     66  57  72 CALM      30.10S
BRAINERD       CLEAR     67  55  65 NW3       30.07R
HIBBING        PTCLDY    60  54  80 N6        30.05R
ALEXANDRIA     CLEAR     69  54  58 NW3       30.10S
SAINT CLOUD    CLEAR     67  55  65 NW6       30.06S
MINNEAPOLIS    PTCLDY    74  53  48 NW10      30.04R
$$

  *****  WEATHER ACROSS SOUTH DAKOTA  *****

CITY           SKY/WX    TMP DP  RH WIND       PRES   REMARKS
SIOUX FALLS    PTCLDY    67  54  63 NW5       30.11F
BROOKINGS      NOT AVBL
WATERTOWN      CLEAR     67  53  61 N3        30.12S
HURON          CLEAR     70  54  56 NE5       30.10S
SISSETON         N/A     68  59  73 NW3       30.08F
ABERDEEN       CLEAR     69  55  60 CALM      30.11S
MITCHELL       CLEAR     73  54  51 N5        30.11S
PIERRE         CLEAR     74  54  49 N5        30.11S
MOBRIDGE       PTCLDY    71  56  58 NE6       30.10S
RAPID CITY     CLOUDY    67  51  56 SW8       30.22R
$$

  *****  SOME WEATHER IN NEARBY STATES *****

CITY           SKY/WX    TMP DP  RH WIND       PRES   REMARKS
GLASGOW MT     CLEAR     83  47  28 E12       30.13S
GREAT FALLS MT PTCLDY    87  39  18 E6        30.12S
CHEYENNE WY    LGT RAIN  59  56  89 NE7       30.31R FOG
SCOTTSBLUFF NE LGT RAIN  66  62  87 SE7       30.22R
OMAHA NE       MOCLDY    72  56  57 CALM      30.11S
DES MOINES IA  PTCLDY    71  54  54 NW5       30.07S
DAVENPORT IA   CLEAR     64  59  83 W8        30.05S
CHICAGO IL     MOCLDY    72  56  57 W9        29.99S
EAU CLAIRE WI  CLOUDY    63  56  78 NE9       30.06R
LA CROSSE WI   LGT RAIN  65  61  87 W5        30.04R
$$

  *****  SOME NATIONAL WEATHER *****

CITY           SKY/WX    TMP DP  RH WIND       PRES   REMARKS
LA GUARDIA NY  MOCLDY    71  52  50 N8        29.96R
RALEIGH NC     PTCLDY    68  61  78 CALM      29.99R
ATLANTA GA     CLEAR     73  54  51 NW9       30.02R
NEW ORLEANS LA MOCLDY    81  63  54 N6        30.01S
OKLAHOMA CITY  CLOUDY    76  62  62 CALM      30.07S
ALBUQUERQUE NM CLOUDY    74  63  68 S8        30.18R
SALT LAKE CITY MOCLDY    73  61  65 NW6       30.11F
LOS ANGELES CA MOSUNNY   71  62  73 W12       29.95S
BOISE ID       CLOUDY    88  46  23 S10       30.02S
SEATTLE WA     MOSUNNY   83  51  33 N8        30.07S
$$

*** WEATHER ACROSS MANITOBA...SASKATCHEWAN AND ONTARIO ***
                ***ONTARIO***

CITY           SKY/WX    TMP DP  RH WIND       PRES   REMARKS
GERALDTON      PTCLDY    55  54  94 CALM      30.01R
THUNDER BAY    PTCLDY    59  50  72 NW2       30.03R
SIOUX LOOKOUT  PTCLDY    54  52  94 CALM      30.04R
TORONTO        MOCLDY    63  57  82 S6        29.95S
BIG TROUT LK   MOCLDY    59  52  77 NW3       30.02S
PICKLE LAKE    PTCLDY    64  45  48 NE3       30.03R
DRYDEN         CLEAR     66  54  63 SE2       30.04S
KENORA         CLOUDY    70  57  64 NW6       30.05S
$$
                *** MANITOBA***

CITY           SKY/WX    TMP DP  RH WIND       PRES   REMARKS
BRANDON        PTCLDY    72  57  60 NW2       30.13S
DAUPHIN        CLEAR     72  57  60 SE3       30.11S
ISLAND LAKE    PTCLDY    68  57  68 CALM      30.05F
PILOT MOUND      N/A     68  57  68 E2          N/A
THE PAS        PTCLDY    77  61  57 W3        30.06S
THOMPSON       MOCLDY    73  59  60 E3        30.06S
WINNIPEG       CLEAR     64  59  82 W5        30.09S
LYNN LAKE      MOCLDY    79  52  38 N5        30.07R
CHURCHILL      CLEAR     63  55  77 SE7       30.07F
GILLAM         CLEAR     64  55  72 CALM      30.06F
$$
                ***SASKATCHEWAN***

CITY           SKY/WX    TMP DP  RH WIND       PRES   REMARKS
ESTEVAN        PTCLDY    68  57  68 N5        30.17S
KINDERSLEY     PTCLDY    73  64  73 E9        30.12S
LLOYDMINSTER   PTCLDY    75  61  60 SE16      30.11F
PRINCE ALBERT  PTCLDY    75  66  73 SE3       30.13S
REGINA         CLEAR     73  59  60 NE6       30.17S
YORKTON        CLEAR     72  61  68 W5        30.15S
N. BATTLEFORD    N/A     73  66  78 SE8       30.15S
LA RONGE       PTCLDY    77  52  41 SW3       30.11
SASKATOON      CLEAR     75  63  64 E7        30.16S
SWIFT CURRENT  CLEAR     75  57  53 SE7       30.15F
$$
NOTE: THESE ARE AUTOMATED STATIONS WITH LIMITED QUALITY CONTROL
      "FAIR" INDICATES FEW OR NO CLOUDS BELOW 12,000 FEET WITH NO
      SIGNIFICANT WEATHER AND/OR OBSTRUCTIONS TO VISIBILITY.
      SKY/WX - SKY CONDITION AND SIGNIFICANT WEATHER.
      TMP - AIR TEMPERATURE.    DP   - DEWPOINT TEMPERATURE.
      RH  - RELATIVE HUMIDITY.  PRES - PRESSURE.
      HX  - HEAT INDEX.         WCI  - WIND CHILL INDEX.
$


USA.gov is the U.S. government's official web portal to all federal, state and local government web resources and services.